Time,TemperatureF,DewpointF,PressureIn,WindDirection,WindDirectionDegrees,WindSpeedMPH,WindSpeedGustMPH,Humidity,HourlyPrecipIn,Conditions,Clouds,dailyrainin,SoftwareType,DateUTC
2013-07-21 00:00:00,53.5,53.5,29.71,NNW,329,0.0,0.0,100,0.00,,,0.00,Wunderground v.1.12,2013-07-21 07:00:00,
2013-07-21 00:10:00,53.5,53.5,29.71,NNW,329,0.0,0.0,100,0.00,,,0.00,Wunderground v.1.12,2013-07-21 07:10:00,
2013-07-21 00:20:00,53.5,53.5,29.71,NNW,329,0.0,0.0,100,0.00,,,0.00,Wunderground v.1.12,2013-07-21 07:20:00,
2013-07-21 00:30:00,53.1,53.1,29.71,NNW,329,0.0,0.0,100,0.00,,,0.00,Wunderground v.1.12,2013-07-21 07:30:00,
2013-07-21 00:40:00,52.9,52.9,29.71,NNW,329,0.0,0.0,100,0.00,,,0.00,Wunderground v.1.12,2013-07-21 07:40:00,
2013-07-21 00:50:00,52.5,52.5,29.70,NNW,328,0.0,0.0,100,0.00,,,0.00,Wunderground v.1.12,2013-07-21 07:50:00,
2013-07-21 01:00:00,52.5,52.5,29.70,NNW,336,0.0,0.0,100,0.00,,,0.00,Wunderground v.1.12,2013-07-21 08:00:00,
2013-07-21 01:10:00,52.8,52.8,29.70,NNE,29,0.0,0.0,100,0.00,,,0.00,Wunderground v.1.12,2013-07-21 08:10:00,
2013-07-21 01:20:00,52.8,52.8,29.70,NE,38,0.0,0.0,100,0.00,,,0.00,Wunderground v.1.12,2013-07-21 08:20:00,
2013-07-21 01:30:00,52.9,52.9,29.70,NE,38,0.0,0.0,100,0.00,,,0.00,Wunderground v.1.12,2013-07-21 08:30:00,
2013-07-21 01:40:00,52.8,52.8,29.69,NE,37,0.0,0.0,100,0.00,,,0.00,Wunderground v.1.12,2013-07-21 08:40:00,
2013-07-21 01:50:00,52.3,52.3,29.69,NE,38,0.0,0.0,100,0.00,,,0.00,Wunderground v.1.12,2013-07-21 08:50:00,
2013-07-21 02:00:00,51.7,51.7,29.69,NE,37,0.0,0.0,100,0.00,,,0.00,Wunderground v.1.12,2013-07-21 09:00:00,
2013-07-21 02:10:00,51.4,51.4,29.69,NE,37,0.0,0.0,100,0.00,,,0.00,Wunderground v.1.12,2013-07-21 09:10:00,
2013-07-21 02:20:00,51.4,51.4,29.69,NE,37,0.0,0.0,100,0.00,,,0.00,Wunderground v.1.12,2013-07-21 09:20:00,
2013-07-21 02:30:00,51.3,51.3,29.69,NE,37,0.0,0.0,100,0.00,,,0.00,Wunderground v.1.12,2013-07-21 09:30:00,
2013-07-21 02:40:00,51.0,51.0,29.68,NE,37,0.0,0.0,100,0.00,,,0.00,Wunderground v.1.12,2013-07-21 09:40:00,
2013-07-21 02:50:00,51.0,51.0,29.68,NE,37,0.0,0.0,100,0.00,,,0.00,Wunderground v.1.12,2013-07-21 09:50:00,
2013-07-21 03:00:00,51.7,51.7,29.68,NE,37,0.0,0.0,100,0.00,,,0.00,Wunderground v.1.12,2013-07-21 10:00:00,
2013-07-21 03:10:00,51.9,51.9,29.68,NE,38,0.0,0.0,100,0.00,,,0.00,Wunderground v.1.12,2013-07-21 10:10:00,
2013-07-21 03:20:00,51.9,51.9,29.68,NE,42,0.0,0.0,100,0.00,,,0.00,Wunderground v.1.12,2013-07-21 10:20:00,
2013-07-21 03:30:00,52.0,52.0,29.68,NE,42,0.0,0.0,100,0.00,,,0.00,Wunderground v.1.12,2013-07-21 10:30:00,
2013-07-21 03:40:00,52.5,52.5,29.68,NE,42,0.0,0.0,100,0.00,,,0.00,Wunderground v.1.12,2013-07-21 10:40:00,
2013-07-21 03:50:00,52.9,52.9,29.68,NE,49,0.0,0.0,100,0.00,,,0.00,Wunderground v.1.12,2013-07-21 10:50:00,
2013-07-21 04:00:00,52.9,52.9,29.68,NE,49,0.0,0.0,100,0.00,,,0.00,Wunderground v.1.12,2013-07-21 11:00:00,
2013-07-21 04:10:00,53.1,53.1,29.68,NE,50,0.0,0.0,100,0.00,,,0.00,Wunderground v.1.12,2013-07-21 11:10:00,
2013-07-21 04:20:00,53.5,53.5,29.68,NE,46,0.0,0.0,100,0.00,,,0.00,Wunderground v.1.12,2013-07-21 11:20:00,
2013-07-21 04:30:00,53.5,53.5,29.68,NE,46,0.0,0.0,100,0.00,,,0.00,Wunderground v.1.12,2013-07-21 11:30:00,
2013-07-21 04:40:00,53.3,53.3,29.68,NE,46,0.0,0.0,100,0.00,,,0.00,Wunderground v.1.12,2013-07-21 11:40:00,
2013-07-21 04:50:00,53.3,53.3,29.68,NE,46,0.0,0.0,100,0.00,,,0.00,Wunderground v.1.12,2013-07-21 11:50:00,
2013-07-21 05:00:00,53.3,53.3,29.68,NE,46,0.0,0.0,100,0.00,,,0.00,Wunderground v.1.12,2013-07-21 12:00:00,
2013-07-21 05:10:00,53.3,53.3,29.68,NE,42,0.0,0.0,100,0.00,,,0.00,Wunderground v.1.12,2013-07-21 12:10:00,
2013-07-21 05:20:00,53.5,53.5,29.68,NE,42,0.0,0.0,100,0.00,,,0.00,Wunderground v.1.12,2013-07-21 12:20:00,
2013-07-21 05:30:00,53.5,53.5,29.68,NE,41,0.0,0.0,100,0.00,,,0.00,Wunderground v.1.12,2013-07-21 12:30:00,
2013-07-21 05:40:00,53.5,53.5,29.68,NE,41,0.0,0.0,100,0.00,,,0.00,Wunderground v.1.12,2013-07-21 12:40:00,
2013-07-21 05:50:00,53.6,53.6,29.69,NE,41,0.0,0.0,100,0.00,,,0.00,Wunderground v.1.12,2013-07-21 12:50:00,
2013-07-21 06:00:00,53.8,53.8,29.69,NE,43,0.0,0.0,100,0.00,,,0.00,Wunderground v.1.12,2013-07-21 13:00:00,
2013-07-21 06:10:00,53.8,53.8,29.70,NE,43,0.0,0.0,100,0.00,,,0.00,Wunderground v.1.12,2013-07-21 13:10:00,
2013-07-21 06:20:00,53.9,53.9,29.70,NE,51,0.0,0.0,100,0.00,,,0.00,Wunderground v.1.12,2013-07-21 13:20:00,
2013-07-21 06:30:00,53.8,53.8,29.70,NE,51,0.0,0.0,100,0.00,,,0.00,Wunderground v.1.12,2013-07-21 13:30:00,
2013-07-21 06:40:00,53.8,53.8,29.70,NE,51,0.0,0.0,100,0.00,,,0.00,Wunderground v.1.12,2013-07-21 13:40:00,
2013-07-21 06:50:00,53.8,53.8,29.70,South,178,0.0,0.0,100,0.00,,,0.00,Wunderground v.1.12,2013-07-21 13:50:00,
2013-07-21 07:00:00,53.8,53.8,29.70,South,184,0.0,0.0,100,0.00,,,0.00,Wunderground v.1.12,2013-07-21 14:00:00,
2013-07-21 07:10:00,53.9,53.9,29.71,South,185,0.0,0.0,100,0.00,,,0.00,Wunderground v.1.12,2013-07-21 14:10:00,
2013-07-21 07:20:00,54.2,54.2,29.71,WSW,246,0.0,0.0,100,0.00,,,0.00,Wunderground v.1.12,2013-07-21 14:20:00,
2013-07-21 07:30:00,54.4,54.4,29.71,SW,225,0.0,0.0,100,0.00,,,0.00,Wunderground v.1.12,2013-07-21 14:30:00,
2013-07-21 07:40:00,54.7,54.7,29.71,West,271,0.0,0.0,100,0.00,,,0.00,Wunderground v.1.12,2013-07-21 14:40:00,
2013-07-21 07:50:00,55.0,55.0,29.71,West,271,0.0,0.0,100,0.00,,,0.00,Wunderground v.1.12,2013-07-21 14:50:00,
2013-07-21 08:00:00,55.3,55.3,29.71,West,269,0.0,0.0,100,0.00,,,0.00,Wunderground v.1.12,2013-07-21 15:00:00,
2013-07-21 08:10:00,55.3,55.3,29.71,West,261,0.0,2.0,100,0.00,,,0.00,Wunderground v.1.12,2013-07-21 15:10:00,
2013-07-21 08:20:00,55.7,55.7,29.72,NW,311,0.0,0.0,100,0.00,,,0.00,Wunderground v.1.12,2013-07-21 15:20:00,
2013-07-21 08:30:00,56.0,56.0,29.72,East,96,0.0,0.0,100,0.00,,,0.00,Wunderground v.1.12,2013-07-21 15:30:00,
2013-07-21 08:40:00,57.0,57.0,29.72,East,94,0.0,0.0,100,0.00,,,0.00,Wunderground v.1.12,2013-07-21 15:40:00,
2013-07-21 08:50:00,58.4,58.4,29.73,East,96,0.0,0.0,100,0.00,,,0.00,Wunderground v.1.12,2013-07-21 15:50:00,
2013-07-21 09:00:00,60.2,60.2,29.73,East,96,0.0,0.0,100,0.00,,,0.00,Wunderground v.1.12,2013-07-21 16:00:00,
2013-07-21 09:10:00,62.1,62.1,29.73,East,96,0.0,0.0,100,0.00,,,0.00,Wunderground v.1.12,2013-07-21 16:10:00,
2013-07-21 09:20:00,63.2,63.2,29.73,South,171,0.0,0.0,100,0.00,,,0.00,Wunderground v.1.12,2013-07-21 16:20:00,
2013-07-21 09:30:00,64.2,64.2,29.73,SW,220,0.0,3.0,100,0.00,,,0.00,Wunderground v.1.12,2013-07-21 16:30:00,
2013-07-21 09:40:00,64.3,64.3,29.72,SSW,208,1.0,1.0,100,0.00,,,0.00,Wunderground v.1.12,2013-07-21 16:40:00,
2013-07-21 09:50:00,66.0,66.0,29.72,SSW,209,0.0,0.0,100,0.00,,,0.00,Wunderground v.1.12,2013-07-21 16:50:00,
2013-07-21 10:00:00,67.8,67.8,29.72,WSW,257,0.0,0.0,100,0.00,,,0.00,Wunderground v.1.12,2013-07-21 17:00:00,
2013-07-21 10:10:00,67.3,67.3,29.72,WNW,287,2.0,2.0,100,0.00,,,0.00,Wunderground v.1.12,2013-07-21 17:10:00,
2013-07-21 10:20:00,67.8,67.8,29.72,WNW,292,1.0,1.0,100,0.00,,,0.00,Wunderground v.1.12,2013-07-21 17:20:00,
2013-07-21 10:30:00,68.3,68.3,29.72,WNW,303,1.0,1.0,100,0.00,,,0.00,Wunderground v.1.12,2013-07-21 17:30:00,
2013-07-21 10:40:00,68.8,68.8,29.72,NW,315,1.0,1.0,100,0.00,,,0.00,Wunderground v.1.12,2013-07-21 17:40:00,
2013-07-21 10:50:00,69.9,69.9,29.73,NNW,331,0.0,0.0,100,0.00,,,0.00,Wunderground v.1.12,2013-07-21 17:50:00,
2013-07-21 11:00:00,70.8,70.8,29.73,WNW,300,1.0,1.0,100,0.00,,,0.00,Wunderground v.1.12,2013-07-21 18:00:00,
2013-07-21 11:10:00,72.1,72.1,29.73,NW,319,1.0,1.0,100,0.00,,,0.00,Wunderground v.1.12,2013-07-21 18:10:00,
2013-07-21 11:20:00,73.2,73.2,29.73,North,351,0.0,0.0,100,0.00,,,0.00,Wunderground v.1.12,2013-07-21 18:20:00,
2013-07-21 11:30:00,73.5,73.5,29.73,NW,315,1.0,5.0,100,0.00,,,0.00,Wunderground v.1.12,2013-07-21 18:30:00,
2013-07-21 11:40:00,73.0,73.0,29.73,WNW,286,2.0,2.0,100,0.00,,,0.00,Wunderground v.1.12,2013-07-21 18:40:00,
2013-07-21 11:50:00,73.3,73.3,29.73,WNW,296,2.0,4.0,100,0.00,,,0.00,Wunderground v.1.12,2013-07-21 18:50:00,
2013-07-21 12:00:00,73.7,73.7,29.73,WSW,250,2.0,2.0,100,0.00,,,0.00,Wunderground v.1.12,2013-07-21 19:00:00,
2013-07-21 12:10:00,74.2,74.2,29.73,WNW,284,3.0,5.0,100,0.00,,,0.00,Wunderground v.1.12,2013-07-21 19:10:00,
2013-07-21 12:20:00,73.9,73.9,29.73,SSW,207,3.0,3.0,100,0.00,,,0.00,Wunderground v.1.12,2013-07-21 19:20:00,
2013-07-21 12:30:00,75.3,75.3,29.73,SW,227,3.0,6.0,100,0.00,,,0.00,Wunderground v.1.12,2013-07-21 19:30:00,
2013-07-21 12:40:00,75.3,75.3,29.72,WSW,249,4.0,6.0,100,0.00,,,0.00,Wunderground v.1.12,2013-07-21 19:40:00,
2013-07-21 12:50:00,75.4,75.4,29.72,WNW,284,3.0,7.0,100,0.00,,,0.00,Wunderground v.1.12,2013-07-21 19:50:00,
2013-07-21 13:00:00,76.3,76.3,29.72,WNW,294,3.0,4.0,100,0.00,,,0.00,Wunderground v.1.12,2013-07-21 20:00:00,
2013-07-21 13:10:00,77.7,77.7,29.72,West,261,2.0,2.0,100,0.00,,,0.00,Wunderground v.1.12,2013-07-21 20:10:00,
2013-07-21 13:20:00,79.2,79.2,29.71,WNW,294,2.0,2.0,100,0.00,,,0.00,Wunderground v.1.12,2013-07-21 20:20:00,
2013-07-21 13:30:00,79.6,79.6,29.71,SW,226,3.0,5.0,100,0.00,,,0.00,Wunderground v.1.12,2013-07-21 20:30:00,
2013-07-21 13:40:00,78.8,78.8,29.71,WSW,240,4.0,6.0,100,0.00,,,0.00,Wunderground v.1.12,2013-07-21 20:40:00,
2013-07-21 13:50:00,79.4,79.4,29.71,SW,219,3.0,7.0,100,0.00,,,0.00,Wunderground v.1.12,2013-07-21 20:50:00,
2013-07-21 14:00:00,79.8,79.8,29.71,SSW,206,4.0,7.0,100,0.00,,,0.00,Wunderground v.1.12,2013-07-21 21:00:00,
2013-07-21 14:10:00,79.4,79.4,29.71,WSW,245,4.0,6.0,100,0.00,,,0.00,Wunderground v.1.12,2013-07-21 21:10:00,
2013-07-21 14:20:00,80.9,80.9,29.71,SW,215,3.0,3.0,100,0.00,,,0.00,Wunderground v.1.12,2013-07-21 21:20:00,
2013-07-21 14:30:00,80.9,80.9,29.71,WNW,282,4.0,4.0,100,0.00,,,0.00,Wunderground v.1.12,2013-07-21 21:30:00,
2013-07-21 14:40:00,80.1,80.1,29.71,SW,217,5.0,8.0,100,0.00,,,0.00,Wunderground v.1.12,2013-07-21 21:40:00,
2013-07-21 14:50:00,79.2,79.2,29.71,SSE,166,6.0,7.0,100,0.00,,,0.00,Wunderground v.1.12,2013-07-21 21:50:00,
2013-07-21 15:00:00,79.6,79.6,29.71,WSW,245,5.0,5.0,100,0.00,,,0.00,Wunderground v.1.12,2013-07-21 22:00:00,
2013-07-21 15:10:00,80.1,80.1,29.71,SSE,166,4.0,4.0,100,0.00,,,0.00,Wunderground v.1.12,2013-07-21 22:10:00,
2013-07-21 15:20:00,79.0,79.0,29.70,SW,235,5.0,10.0,100,0.00,,,0.00,Wunderground v.1.12,2013-07-21 22:20:00,
2013-07-21 15:30:00,79.0,79.0,29.70,SSW,193,6.0,6.0,100,0.00,,,0.00,Wunderground v.1.12,2013-07-21 22:30:00,
2013-07-21 15:40:00,80.1,80.1,29.70,SW,221,5.0,6.0,100,0.00,,,0.00,Wunderground v.1.12,2013-07-21 22:40:00,
2013-07-21 15:50:00,79.9,79.9,29.70,SW,217,5.0,8.0,100,0.00,,,0.00,Wunderground v.1.12,2013-07-21 22:50:00,
2013-07-21 16:00:00,80.3,80.3,29.70,SW,218,5.0,8.0,100,0.00,,,0.00,Wunderground v.1.12,2013-07-21 23:00:00,
2013-07-21 16:10:00,79.8,79.8,29.70,SSW,203,6.0,8.0,100,0.00,,,0.00,Wunderground v.1.12,2013-07-21 23:10:00,
2013-07-21 16:20:00,80.3,80.3,29.69,SSW,213,4.0,6.0,100,0.00,,,0.00,Wunderground v.1.12,2013-07-21 23:20:00,
2013-07-21 16:30:00,80.1,80.1,29.69,SW,215,4.0,4.0,100,0.00,,,0.00,Wunderground v.1.12,2013-07-21 23:30:00,
2013-07-21 16:40:00,78.5,78.5,29.69,SSW,213,6.0,6.0,100,0.00,,,0.00,Wunderground v.1.12,2013-07-21 23:40:00,
2013-07-21 16:50:00,77.6,77.6,29.69,SSW,200,6.0,6.0,100,0.00,,,0.00,Wunderground v.1.12,2013-07-21 23:50:00,
2013-07-21 17:00:00,76.8,76.8,29.69,WSW,243,7.0,7.0,100,0.00,,,0.00,Wunderground v.1.12,2013-07-22 00:00:00,
2013-07-21 17:10:00,77.9,77.9,29.69,WSW,239,5.0,8.0,100,0.00,,,0.00,Wunderground v.1.12,2013-07-22 00:10:00,
2013-07-21 17:20:00,76.8,76.8,29.69,SW,217,6.0,10.0,100,0.00,,,0.00,Wunderground v.1.12,2013-07-22 00:20:00,
2013-07-21 17:30:00,75.6,75.6,29.69,WSW,242,7.0,7.0,100,0.00,,,0.00,Wunderground v.1.12,2013-07-22 00:30:00,
2013-07-21 17:40:00,75.4,75.4,29.69,SSW,199,6.0,10.0,100,0.00,,,0.00,Wunderground v.1.12,2013-07-22 00:40:00,
2013-07-21 17:50:00,74.7,74.7,29.68,South,189,7.0,7.0,100,0.00,,,0.00,Wunderground v.1.12,2013-07-22 00:50:00,
2013-07-21 18:00:00,74.7,74.7,29.68,WSW,237,5.0,7.0,100,0.00,,,0.00,Wunderground v.1.12,2013-07-22 01:00:00,
2013-07-21 18:10:00,74.0,74.0,29.68,SW,224,5.0,5.0,100,0.00,,,0.00,Wunderground v.1.12,2013-07-22 01:10:00,
2013-07-21 18:20:00,74.2,74.2,29.69,SSW,194,4.0,4.0,100,0.00,,,0.00,Wunderground v.1.12,2013-07-22 01:20:00,
2013-07-21 18:30:00,73.2,73.2,29.69,SW,220,5.0,5.0,100,0.00,,,0.00,Wunderground v.1.12,2013-07-22 01:30:00,
2013-07-21 18:40:00,72.7,72.7,29.70,SSW,194,4.0,4.0,100,0.00,,,0.00,Wunderground v.1.12,2013-07-22 01:40:00,
2013-07-21 18:50:00,72.3,72.3,29.71,SW,223,4.0,4.0,100,0.00,,,0.00,Wunderground v.1.12,2013-07-22 01:50:00,
2013-07-21 19:00:00,71.8,71.8,29.71,SSW,213,3.0,4.0,100,0.00,,,0.00,Wunderground v.1.12,2013-07-22 02:00:00,
2013-07-21 19:10:00,70.9,70.9,29.71,WSW,242,4.0,6.0,100,0.00,,,0.00,Wunderground v.1.12,2013-07-22 02:10:00,
2013-07-21 19:20:00,69.9,69.9,29.71,SW,214,4.0,4.0,100,0.00,,,0.00,Wunderground v.1.12,2013-07-22 02:20:00,
2013-07-21 19:30:00,68.4,68.4,29.71,SW,223,5.0,5.0,100,0.00,,,0.00,Wunderground v.1.12,2013-07-22 02:30:00,
2013-07-21 19:40:00,67.3,67.3,29.72,SW,216,5.0,5.0,100,0.00,,,0.00,Wunderground v.1.12,2013-07-22 02:40:00,
2013-07-21 19:50:00,66.8,66.8,29.72,NW,313,1.0,2.0,100,0.00,,,0.00,Wunderground v.1.12,2013-07-22 02:50:00,
2013-07-21 20:00:00,65.8,65.8,29.72,NNE,21,2.0,2.0,100,0.00,,,0.00,Wunderground v.1.12,2013-07-22 03:00:00,
2013-07-21 20:10:00,64.8,64.8,29.73,NNW,334,1.0,1.0,100,0.00,,,0.00,Wunderground v.1.12,2013-07-22 03:10:00,
2013-07-21 20:20:00,64.0,64.0,29.73,WNW,301,0.0,0.0,100,0.00,,,0.00,Wunderground v.1.12,2013-07-22 03:20:00,
2013-07-21 20:30:00,62.9,62.9,29.73,West,279,0.0,0.0,100,0.00,,,0.00,Wunderground v.1.12,2013-07-22 03:30:00,
2013-07-21 20:40:00,61.3,61.3,29.74,NNE,24,3.0,3.0,100,0.00,,,0.00,Wunderground v.1.12,2013-07-22 03:40:00,
2013-07-21 20:50:00,60.5,60.5,29.74,North,360,2.0,2.0,100,0.00,,,0.00,Wunderground v.1.12,2013-07-22 03:50:00,
2013-07-21 21:00:00,59.9,59.9,29.74,NNE,16,2.0,2.0,100,0.00,,,0.00,Wunderground v.1.12,2013-07-22 04:00:00,
2013-07-21 21:03:00,59.9,59.9,29.74,NNE,22,3.0,6.0,100,0.00,,,-99.99,WeatherLink 5.8.2,2013-07-22 04:03:00,
2013-07-21 21:10:00,59.5,59.5,29.75,North,10,1.0,1.0,100,0.00,,,0.00,Wunderground v.1.12,2013-07-22 04:10:00,
2013-07-21 21:20:00,59.2,59.2,29.76,NE,40,1.0,1.0,100,0.00,,,0.00,Wunderground v.1.12,2013-07-22 04:20:00,
2013-07-21 21:23:00,59.2,59.2,29.76,NNE,22,1.0,6.0,100,0.00,,,-99.99,WeatherLink 5.8.2,2013-07-22 04:23:00,
2013-07-21 21:30:00,58.9,58.9,29.76,WSW,244,0.0,0.0,100,0.00,,,0.00,Wunderground v.1.12,2013-07-22 04:30:00,
2013-07-21 21:40:00,58.6,58.6,29.76,West,268,0.0,0.0,100,0.00,,,0.00,Wunderground v.1.12,2013-07-22 04:40:00,
2013-07-21 21:50:00,58.3,58.3,29.77,WNW,292,0.0,2.0,100,0.00,,,0.00,Wunderground v.1.12,2013-07-22 04:50:00,
2013-07-21 22:00:00,58.1,58.1,29.77,WNW,296,0.0,0.0,100,0.00,,,0.00,Wunderground v.1.12,2013-07-22 05:00:00,
2013-07-21 22:10:00,58.0,58.0,29.77,NNE,26,0.0,3.0,100,0.00,,,0.00,Wunderground v.1.12,2013-07-22 05:10:00,
2013-07-21 22:20:00,57.8,57.8,29.78,NNE,16,1.0,3.0,100,0.00,,,0.00,Wunderground v.1.12,2013-07-22 05:20:00,
2013-07-21 22:30:00,57.6,57.6,29.78,NNE,24,1.0,1.0,100,0.00,,,0.00,Wunderground v.1.12,2013-07-22 05:30:00,
2013-07-21 22:40:00,57.5,57.5,29.77,WNW,298,1.0,1.0,100,0.00,,,0.00,Wunderground v.1.12,2013-07-22 05:40:00,
2013-07-21 22:50:00,57.5,57.5,29.78,NNE,14,0.0,0.0,100,0.00,,,0.00,Wunderground v.1.12,2013-07-22 05:50:00,
2013-07-21 23:00:00,57.3,57.3,29.78,NNE,21,0.0,0.0,100,0.00,,,0.00,Wunderground v.1.12,2013-07-22 06:00:00,
2013-07-21 23:10:00,57.0,57.0,29.78,NNE,20,0.0,0.0,100,0.00,,,0.00,Wunderground v.1.12,2013-07-22 06:10:00,
2013-07-21 23:20:00,56.9,56.9,29.79,NNE,22,0.0,1.0,100,0.00,,,-99.99,WeatherLink 5.8.2,2013-07-22 06:20:00,
2013-07-21 23:30:00,56.7,56.7,29.79,NNE,33,0.0,0.0,100,0.00,,,0.00,Wunderground v.1.12,2013-07-22 06:30:00,
2013-07-21 23:40:00,56.9,56.9,29.79,NNE,22,1.0,1.0,100,0.00,,,0.00,Wunderground v.1.12,2013-07-22 06:40:00,
2013-07-21 23:50:00,56.9,56.9,29.79,NNE,14,1.0,5.0,100,0.00,,,0.00,Wunderground v.1.12,2013-07-22 06:50:00,